CZ-6A DEB, 60984

Orbit data source: Space-Track

CZ-6A DEB, 60984 is space debris in LEO originally from a launch on Tue, 06 Aug 2024 UTC launched from the Taiyaun Space Center, China (TSC). Debris objects in space refer to the collection of defunct objects orbiting the Earth. Examples of debris include non-operational satellites, rocket bodies, and fragments generated from explosions, collisions, or faulty payload assembly.

Loading next visibility...
Identifier
60984, 2024-140MK
Orbit
LEO
Country
Flag of CNCN / PRC
Related business
Manufacturer
SAST
Mission
Spacecraft
Bus & Motor
Unknown
Mass
Unknown
Launch date (UTC)
2024-08-06 (2 years ago)
Launch vehicle
Unknown
Launch site
Taiyaun Space Center, China (TSC)
Object type
Payload
Rocket body
Debris
Shape & HBR
Unknown shape, 0.1 m
Radar Cross Section
Medium (>0.1 m² and <1 m²)

Expand to show TLE details & history
Last TLE update: 14 hours ago

TLE from 14 hours ago
0 CZ-6A DEB
1 60984U 24140MK  26171.25820888  .00000352  00000-0  99374-4 0  9992
2 60984  88.9341 265.8466 0060982 247.8667 111.6055 14.42479788 96125
Epoch: 2026-06-20T06:11Z
TLE epoch observation values (Epoch: 2026-06-20T06:11:49.247Z)
Latitude
-0.00006°
Longitude
-95.58401°
Altitude
769.64 km
Speed
7.461 km/s
True Right ascension
17h 43m 23s
True Declination
0° 00' 00"
Sunlit
Object was in full shadow at epoch
Visualization orbit readout
Latitude
Unknown
Longitude
Unknown
Altitude
Unknown
Speed
Unknown
Apparent Right ascension
Unknown
Apparent Declination
Unknown
Sunlit
N/A
Visualization observer readout
Local Sidereal Time
07:24:02
Azimuth
Unknown
Elevation
Unknown
Doppler factor
Unknown
Orbital elements
Apogee altitude
790.688 km
Perigee altitude
703.784 km
Semi-major axis
7,125.373 km
Eccentricity
0.0061
Inclination
88.9341°
RAAN
265.8466°
Arg. of periapsis
247.8667°
True anomaly
112.25337°
Mean anomaly
111.6055°
Eccentric anomaly
111.92962°
Mean motion
3.60854 °/min
Orbital period
99.76 mins
BSTAR
0.000099374
Loading maneuver chart data...
Computing Atmospheric mass density...
Loading historical data...
Loading historical data...
Loading historical data...
Loading historical data...
Loading historical data...
Loading historical data...
Loading historical data...

Documentation

Showing up to 5 results
|